User: anonymous   Login
Location: Caltech
(34.1382°N, 118.1253°W)
Time: 17:50:32
(UTC-08:00)
Language:

Iridium 95 - Orbit

View from above orbital plane
View from above orbital plane
View from above satellite
View from above satellite

Ground track
Ground track

The orbit data is extracted from the following two-line orbital elements,

1 27375U 02005D   14354.48346137  .00000971  00000-0  33960-3 0  5665
2 27375 086.3987 307.7352 0002253 102.9706 257.1741 14.34214406680528
Epoch (UTC): 20 December 2014 11:36:11
Eccentricity: 0.0002253
inclination: 86.3987°
perigee height: 776 km
apogee height: 779 km
right ascension of ascending node: 307.7352°
argument of perigee: 102.9706°
revolutions per day: 14.34214406
mean anomaly at epoch: 257.1741°
orbit number at epoch: 68052

The dashed part of the orbit path shows where the satellite is in the earth's shadow,  

DLR